Hourly Weather Roundup
Issued by NWS Central Illinois

Home | Current Version | Previous Version | Text Only | Print | Product List | Glossary On
Versions: 1 2 3 4 5 6 7 8 9 10 11 12 13 14 15 16 17 18 19 20 21 22 23 24 25 26 27 28 29 30 31 32 33 34 35 36 37 38 39 40 41 42 43 44 45 46 47 48 49 50
000
NZUS43 KILX 030310
HWRILX

AREA WEATHER ROUNDUP
NATIONAL WEATHER SERVICE, LINCOLN IL
900 PM CST FRI DEC 02 2016


CITY           SKY/WX    TMP DP  RH WIND       PRES   REMARKS
BLOOMINGTON    CLOUDY    38  29  70 NW10      30.34R WCI  31
CHAMPAIGN      CLOUDY    39  33  79 NW5       30.33R
DANVILLE       CLOUDY    37  32  82 NW3       30.29S
DECATUR        CLOUDY    41  32  70 W3        30.34R
EFFINGHAM      CLOUDY    37  36  94 CALM      30.36S
FLORA          MOCLDY    32  30  92 CALM      30.36R
GALESBURG      CLOUDY    35  30  81 CALM      30.35R
JACKSONVILLE   MOCLDY    36  31  81 N5        30.33F WCI  32
LACON          CLOUDY    35  28  74 NW8       30.35R WCI  29
LAWRENCEVILLE  CLOUDY    40  32  73 NW3       30.35R
LITCHFIELD     CLEAR     33  31  92 S3        30.33S
$$


CITY           SKY/WX    TMP DP  RH WIND       PRES   REMARKS
LINCOLN        CLOUDY    40  33  76 NW3       30.35R
MACOMB         CLOUDY    37  32  81 N5        30.37R WCI  34
MATTOON        CLOUDY    39  31  72 W3        30.33R
MT CARMEL AP   CLOUDY    38  32  80 CALM      30.35S
OLNEY-NOBLE AP CLOUDY    34  34 100 CALM      30.36R
PARIS          CLOUDY    38  35  89 SW5       30.34R WCI  34
PEORIA         CLOUDY    38  28  67 NW6       30.36R WCI  33
PONTIAC        CLOUDY    38  32  80 NW7       30.34R WCI  32
RANTOUL        CLOUDY    40  34  81 NW6       30.33R
SPRINGFIELD    CLOUDY    41  34  76 NW5       30.35R
TAYLORVILLE    CLOUDY    38  33  81 W3        30.34R
$$

...REGIONAL REPORTS...


CITY           SKY/WX    TMP DP  RH WIND       PRES   REMARKS
CHICAGO O`HARE CLOUDY    35  24  64 NW7       30.30R WCI  29
KANKAKEE       CLOUDY    37  32  81 W3        30.33R
MOLINE         CLOUDY    36  25  64 NW8       30.34R WCI  30
MOUNT STERLING MOCLDY    35  30  82 N6        30.33F WCI  30
MOUNT VERNON   NOT AVBL
PITTSFIELD     PTCLDY    30  28  92 CALM      30.34S
QUINCY         MOCLDY    37  31  78 NE5       30.33S WCI  33
ROCKFORD       CLOUDY    33  24  69 W9        30.34R WCI  25
$$


CITY           SKY/WX    TMP DP  RH WIND       PRES   REMARKS
BURLINGTON     CLOUDY    37  31  78 N5        30.35R WCI  33
CEDAR RAPIDS   CLOUDY    31  29  92 W5        30.33S WCI  26
DES MOINES     CLOUDY    38  33  82 CALM      30.35R
KIRKSVILLE     CLEAR     33  29  85 NE6       30.33F WCI  28
OTTUMWA        CLOUDY    37  29  72 NE5       30.34S WCI  33
ST LOUIS       CLOUDY    37  27  67 CALM      30.34S
$$


CITY           SKY/WX    TMP DP  RH WIND       PRES   REMARKS
TERRE HAUTE    CLOUDY    39  31  72 W5        30.34R
EVANSVILLE     CLEAR     37  30  75 N5        30.36R WCI  33
INDIANAPOLIS   CLOUDY    37  34  89 W6        30.31R WCI  32
LAFAYETTE      CLOUDY    36  33  89 W5        30.32R WCI  32
MADISON        CLOUDY    31  22  69 CALM      30.30R
MILWAUKEE      CLOUDY    35  23  61 W7        30.29R WCI  29
$$






USA.gov is the U.S. government's official web portal to all federal, state and local government web resources and services.